Harrisburg, PA

12:46 AM EDT on April 30, 2017 (GMT -0400)
Capital City

Weather History for KCXY - April, 2014

Change the Weather History Date:

Thursday, April 10, 2014

  Actual Average Record
Temperature  
Mean Temperature 50 °F -  
Max Temperature 69 °F 58 °F 87 °F (2013)
Min Temperature 33 °F 39 °F 26 °F (1985)
Degree Days  
Heating Degree Days 14    
Moisture  
Dew Point 30 °F    
Average Humidity 44    
Maximum Humidity 78    
Minimum Humidity 25    
Precipitation  
Precipitation 0.00 in - - ()
Sea Level Pressure  
Sea Level Pressure 30.07 in    
Wind  
Wind Speed 5 mph (SSW)    
Max Wind Speed 17 mph    
Max Gust Speed 32 mph    
Visibility 10 miles    
Events      
Averages and records for this station are not official NWS values.
T = Trace of Precipitation, MM = Missing Value Source: NWS Daily Summary

Daily Weather History Graph

Daily Weather History Graph

Search for Another Location

Airport or City:

Trip Planner

Search our weather history database for the weather conditions in past years. The results will help you decide how hot, cold, wet, or windy it might be!

Date:

Astronomy

Apr. 10, 2014 Rise Set
Actual Time 6:36 AM EDT 7:41 PM EDT
Civil Twilight 6:09 AM EDT 8:08 PM EDT
Nautical Twilight 5:36 AM EDT 8:42 PM EDT
Astronomical Twilight 5:01 AM EDT 9:16 PM EDT
Moon 3:22 PM EDT (4/10) 3:59 AM EDT (4/10)
Length of Visible Light 13h 59m
Length of Day
13h 04m
Waxing Gibbous, 79% of the Moon is Illuminated
Apr 10
Waxing Gibbous
Apr 15
Full
Apr 22
Last Quarter
Apr 29
New
May 6
First Quarter

Hourly Weather History & Observations

Time (EDT) Temp. Windchill Dew Point Humidity Pressure Visibility Wind Dir Wind Speed Gust Speed Precip Events Conditions
12:56 AM 42.1 °F 40.2 °F 27.0 °F 55% 30.07 in 10.0 mi SW 3.5 mph - N/A   Clear
1:56 AM 41.0 °F - 26.1 °F 55% 30.09 in 10.0 mi Calm Calm - N/A   Clear
2:56 AM 37.9 °F - 27.0 °F 65% 30.09 in 10.0 mi Calm Calm - N/A   Clear
3:56 AM 36.0 °F 33.3 °F 28.0 °F 73% 30.11 in 10.0 mi Variable 3.5 mph - N/A   Clear
4:56 AM 35.1 °F - 28.9 °F 78% 30.11 in 10.0 mi Calm Calm - N/A   Clear
5:56 AM 33.1 °F 30.0 °F 26.1 °F 75% 30.14 in 10.0 mi WSW 3.5 mph - N/A   Clear
6:56 AM 34.0 °F - 27.0 °F 75% 30.16 in 10.0 mi Calm Calm - N/A   Clear
8:56 AM 46.0 °F - 33.1 °F 61% 30.20 in 10.0 mi Calm Calm - N/A   Clear
9:56 AM 52.0 °F - 30.9 °F 45% 30.19 in 10.0 mi Calm Calm - N/A   Clear
10:56 AM 60.1 °F - 28.9 °F 31% 30.17 in 10.0 mi WSW 12.7 mph 19.6 mph N/A   Clear
11:56 AM 63.0 °F - 30.9 °F 30% 30.14 in 10.0 mi SW 9.2 mph 23.0 mph N/A   Clear
12:56 PM 64.9 °F - 30.9 °F 28% 30.10 in 10.0 mi SSW 11.5 mph 24.2 mph N/A   Clear
1:56 PM 66.9 °F - 32.0 °F 27% 30.08 in 10.0 mi SW 13.8 mph 23.0 mph N/A   Clear
2:56 PM 68.0 °F - 32.0 °F 26% 30.06 in 10.0 mi SW 15.0 mph 25.3 mph N/A   Clear
3:56 PM 66.9 °F - 32.0 °F 27% 30.03 in 10.0 mi SSW 10.4 mph 27.6 mph N/A   Clear
4:56 PM 68.0 °F - 32.0 °F 26% 30.01 in 10.0 mi SSW 17.3 mph 23.0 mph N/A   Clear
5:56 PM 68.0 °F - 30.9 °F 25% 30.00 in 10.0 mi SSW 15.0 mph 32.2 mph N/A   Clear
6:56 PM 68.0 °F - 30.9 °F 25% 29.99 in 10.0 mi SSW 12.7 mph 21.9 mph N/A   Clear
7:56 PM 66.0 °F - 30.9 °F 27% 29.99 in 10.0 mi South 8.1 mph - N/A   Clear
8:56 PM 62.1 °F - 33.1 °F 34% 29.97 in 10.0 mi SE 12.7 mph - N/A   Clear
9:56 PM 60.1 °F - 33.1 °F 36% 29.99 in 10.0 mi SSE 11.5 mph - N/A   Clear
10:56 PM 59.0 °F - 34.0 °F 39% 29.98 in 10.0 mi South 6.9 mph - N/A   Clear
11:56 PM 59.0 °F - 34.0 °F 39% 29.98 in 10.0 mi Calm Calm - N/A   Clear